Dewpoint
67 69 70 70 70 70 69 70 70 70 69 70 70 70 70 70 70 70 70 70 70 70 69 69 68 68 68 68 68 67 66 65
67 67 68 69 69 69 69 69 70 70 70 70 70 70 70 70 70 70 70 70 69 69 69 68 68 69 69 68 67 66 66 66
66 67 66 66 67 69 69 69 69 70 70 70 70 69 69 70 69 69 69 68 68 68 67 67 67 67 67 67 67 67 66 66
65 65 65 66 67 67 68 68 68 68 68 68 68 67 67 67 67 68 68 67 67 66 66 66 66 66 66 67 66 66 66 65
65 65 65 65 66 66 66 67 67 67 67 66 66 66 66 65 66 66 66 66 66 67 66 66 66 66 66 66 66 64 65 65
65 65 64 64 65 65 65 66 66 65 66 65 65 64 64 64 64 63 62 62 62 64 64 66 65 62 64 65 64 63 65 65
64 64 64 64 65 64 65 65 64 65 65 64 63 63 62 61 61 60 59 59 59 59 59 61 60 61 61 60 62 63 62 63
64 64 64 64 64 64 64 64 64 64 63 62 61 61 60 59 59 58 58 57 57 57 57 57 56 58 58 58 62 61 61 61
64 64 64 64 63 63 63 63 62 61 58 57 60 59 58 57 57 57 56 53 52 51 51 51 51 50 50 55 59 59 59 58
65 65 64 63 62 62 62 60 58 56 54 53 55 56 56 57 56 54 51 49 50 49 48 47 46 45 47 54 57 57 56 56
64 63 62 61 59 58 58 56 54 52 51 51 50 50 52 54 55 50 48 47 48 47 46 46 43 43 49 54 54 53 55 54
62 59 57 56 55 54 54 53 50 49 49 48 48 49 50 50 48 48 47 47 46 46 45 44 43 47 52 50 50 50 51 52
59 57 55 54 53 52 51 50 50 49 48 46 46 45 47 47 46 46 46 46 45 45 44 43 42 50 49 45 44 46 46 45
57 55 54 54 52 52 51 49 47 46 46 45 44 43 44 45 44 45 45 44 44 44 43 42 41 46 49 48 44 43 44 43
55 54 54 54 51 49 47 46 45 44 44 44 43 43 43 43 43 44 44 44 43 43 43 42 39 42 45 47 45 43 41 41
55 55 54 53 53 53 53 51 51 47 46 43 43 43 43 44 43 44 44 44 43 42 43 43 41 39 42 40 42 41 39 38
55 55 55 54 54 55 53 48 47 45 43 42 42 43 43 44 44 44 44 43 43 42 41 41 43 40 40 39 39 40 38 38
55 54 54 54 53 52 50 47 43 42 42 41 41 42 42 43 43 43 43 42 41 40 39 40 41 40 40 39 38 41 37 37
54 54 54 53 52 49 48 46 44 43 42 41 41 41 41 42 42 42 41 41 40 39 38 37 37 38 38 37 37 37 36 36
53 53 52 51 50 48 47 46 45 43 43 42 41 41 41 42 42 42 41 40 39 37 37 36 36 35 35 34 34 33 34 34
Wind_Speed
12 12 14 17 17 17 16 16 16 16 15 15 14 13 12 11 11 9 8 7 6 5 4 2 1 0 1 2 2 2 3 4
11 11 13 14 14 17 17 16 15 15 15 14 13 13 12 10 9 8 8 6 6 5 4 2 1 1 2 2 3 4 2 4
9 9 10 11 12 13 14 15 15 14 13 13 12 10 10 9 8 8 7 6 6 6 5 4 2 2 4 3 3 3 2 4
9 10 10 8 8 11 12 12 11 11 11 10 8 8 8 7 5 6 6 7 8 8 8 8 4 3 3 3 1 1 3 3
12 11 11 10 10 9 10 10 10 10 10 9 7 7 7 6 5 3 2 3 4 5 4 4 4 2 3 2 4 9 9 8
13 13 11 10 10 11 10 11 10 9 9 9 9 8 7 6 5 3 2 1 3 1 1 1 3 1 1 6 13 8 8 12
18 16 15 14 12 10 11 11 11 10 9 9 9 8 7 6 4 3 3 1 2 2 4 4 5 8 9 12 13 12 11 12
19 18 16 14 12 12 11 11 11 10 9 8 7 6 6 5 4 3 3 3 3 3 3 6 6 7 7 9 12 12 13 14
20 17 15 15 13 11 11 11 11 12 9 6 6 5 5 5 5 4 4 4 5 6 6 7 8 7 9 6 10 12 12 14
19 15 16 15 13 14 12 10 10 9 8 7 6 5 5 7 6 6 6 5 6 7 7 8 9 9 9 8 9 11 12 14
16 16 17 15 9 8 8 9 8 7 6 5 5 3 3 4 5 5 5 6 6 5 4 5 10 11 12 12 11 12 12 12
19 16 14 14 13 13 12 12 9 7 6 6 6 5 4 4 5 4 4 3 4 4 5 6 5 12 14 16 13 12 12 11
22 22 17 18 14 11 9 5 4 4 5 6 7 6 5 4 3 2 2 2 2 3 4 8 6 10 13 14 14 14 14 13
18 19 20 19 22 14 6 5 3 3 2 5 6 4 2 3 3 2 1 1 1 3 2 4 3 9 7 7 6 5 11 11
15 19 19 14 13 18 12 9 5 1 0 1 1 1 1 2 3 4 5 4 4 3 4 4 5 7 7 4 6 6 8 5
15 15 17 15 14 12 6 5 3 4 3 2 2 1 0 1 3 4 4 3 4 4 4 6 5 9 4 2 3 6 6 6
16 14 11 9 10 8 9 8 8 6 8 9 7 4 3 2 3 4 5 5 5 5 5 7 7 5 6 4 2 4 7 6
19 18 13 11 8 10 12 10 9 10 11 13 12 6 5 4 4 4 4 5 5 4 3 4 8 9 8 7 7 6 7 6
9 11 11 13 17 18 17 17 16 16 13 12 10 9 8 9 8 8 7 6 5 4 3 3 3 7 9 9 7 8 7 6
15 16 16 16 13 13 13 10 11 14 15 14 13 14 11 8 10 8 8 9 7 5 4 4 4 4 6 5 5 5 7 7
Wind_Direction
153 159 161 161 164 165 164 164 164 164 163 162 161 158 159 159 157 155 152 152 145 140 137 127 101 156 54 58 51 36 354 341
163 161 159 160 165 167 167 164 164 166 164 166 165 158 160 162 159 161 162 169 159 154 151 168 224 306 313 338 344 328 354 312
166 164 163 165 161 162 160 161 165 163 163 166 160 157 156 158 167 172 180 189 187 186 191 193 228 287 294 300 300 286 306 275
186 176 173 161 153 156 157 158 159 158 159 158 159 155 152 152 163 190 202 216 223 215 219 200 204 245 280 298 270 337 354 328
198 181 180 175 176 166 161 159 159 159 159 159 156 153 145 139 136 145 172 228 235 218 222 225 208 235 248 180 92 93 87 59
192 192 186 194 178 175 171 163 165 164 164 155 149 143 148 145 148 152 113 42 274 137 256 192 115 73 205 138 119 96 77 78
195 192 191 188 179 178 174 169 163 158 153 155 154 152 158 148 149 145 129 93 55 45 66 92 89 94 100 115 109 95 84 82
192 194 192 178 176 175 172 163 159 153 153 156 155 157 166 160 153 160 144 130 114 92 77 84 66 90 91 108 113 107 102 96
189 184 177 176 180 170 167 164 156 152 147 131 148 151 161 160 164 155 148 130 123 108 86 87 89 80 92 99 106 104 100 100
177 173 173 171 172 179 169 157 145 135 128 118 114 147 169 166 161 157 147 138 134 120 112 94 96 97 85 64 71 83 87 88
166 165 168 163 146 126 125 116 117 113 107 101 90 102 133 163 174 158 147 140 130 139 102 114 118 106 97 81 66 76 81 87
162 154 142 118 91 72 61 71 62 64 74 72 56 38 58 96 114 127 125 136 132 134 131 81 120 113 96 85 78 74 72 80
157 148 131 114 91 87 68 53 44 39 30 56 68 57 52 77 91 95 101 186 199 160 122 132 120 131 103 84 64 69 71 65
141 140 134 133 132 126 118 137 98 91 70 64 65 70 91 118 130 132 183 220 195 193 153 147 127 195 144 134 146 89 59 64
135 128 123 114 106 107 107 106 83 71 71 87 87 94 73 146 159 178 182 173 204 213 210 190 183 208 216 152 155 179 128 57
82 96 108 123 134 128 152 163 171 264 256 255 237 229 247 193 184 185 192 195 206 200 199 206 181 196 218 344 15 132 162 153
118 122 131 139 147 159 176 181 185 197 215 210 215 215 207 208 204 193 193 190 182 206 196 207 205 203 192 162 131 73 113 141
142 146 153 157 169 191 198 205 205 204 210 212 211 204 216 208 187 195 197 201 197 189 201 227 207 195 193 191 183 178 178 153
137 151 168 185 192 198 196 208 208 225 225 227 217 212 220 222 200 189 189 198 183 171 167 169 209 208 194 201 197 186 162 143
172 181 192 202 213 221 207 215 221 222 227 221 224 228 225 211 213 207 205 182 173 168 151 151 153 151 157 165 155 162 172 167